Location: Bothwell
(41.7170°N, 112.2589°W)
Time: 02:30:28
(UTC+00:00)

Tiros 1 - Pass Details

Date: 19 May 2026
Orbit: 618 x 649 km, 48.4° (Epoch: 6 June)

Event Time Altitude Azimuth Distance (km) Brightness Sun altitude
Rises 10:22:29 0° 297° (WNW) 2,906 10.3 -16.1°
Reaches altitude 10° 10:24:49 10° 301° (WNW) 1,993 9.5 -15.8°
Maximum altitude 10:29:23 66° 24° (NNE) 677 7.4 -15.2°
Drops below altitude 10° 10:33:54 10° 107° (ESE) 1,975 10.0 -14.6°
Sets 10:36:13 0° 110° (ESE) 2,878 10.9 -14.3°
